Location: Bemmer
(51.5498°N, 5.6249°E)
Time: 02:35:09
(UTC+00:00)

Cosmos 2242 Rocket - Pass Details

Date: 03 March 2021
Orbit: 617 x 652 km, 82.5° (Epoch: 13 April)

Event Time Altitude Azimuth Distance (km) Brightness Sun altitude
Rises 19:04:09 0° 347° (NNW) 2,966 7.4 -16.7°
Reaches altitude 10° 19:06:26 10° 345° (NNW) 2,046 6.5 -17.0°
Maximum altitude 19:10:56 68° 264° (W) 689 3.9 -17.7°
Drops below altitude 10° 19:15:21 10° 181° (S) 2,007 6.1 -18.4°
Sets 19:17:34 0° 179° (S) 2,904 6.9 -18.7°
